Regional Weather Roundup
Issued by NWS

Home | Current Version | Previous Version | Text Only | Print | Product List | Glossary Off
Versions: 1 2 3 4 5 6 7 8 9 10 11 12 13 14 15 16 17 18 19 20 21 22 23 24 25 26 27 28 29 30 31 32 33 34 35 36 37 38 39 40 41 42 43 44 45 46 47 48 49 50

000
ASUS43 KDMX 270107
RWRIA

WEATHER ROUNDUP FOR IOWA
NATIONAL WEATHER SERVICE DES MOINES IA
800 PM CDT TUE AUG 26 2014

NOTE: "FAIR" INDICATES FEW OR NO CLOUDS BELOW 12,000 FEET WITH NO
SIGNIFICANT WEATHER AND/OR OBSTRUCTIONS TO VISIBILITY.

* - THESE STATIONS ARE NOT NWS STATIONS...THUS NOT UNDER NWS
QUALITY CONTROL.  THEY ALSO DO NOT REPORT WEATHER SUCH
AS PRECIPITATION OR FOG.

IAZ001>003-012>014-020>022-031>034-043>046-270200-
   NORTHWEST IOWA

CITY           SKY/WX    TMP DP  RH WIND       PRES   REMARKS
CARROLL *      CLEAR     68  64  88 CALM      30.13S
CHEROKEE *     CLOUDY    68  63  83 CALM      30.14S
DENISON *      CLEAR     70  66  88 E5        30.11S
LE MARS *      CLEAR     68  61  77 SE5       30.14R
ORANGE CITY *  CLEAR     68  57  68 CALM      30.14S
SHELDON *      CLEAR     64  61  88 CALM      30.13S
SIOUX CITY       N/A     70  62  76 E6        30.12S
SPENCER        MOCLDY    68  58  70 E6        30.14R
STORM LAKE *   CLEAR     64  64 100 E3        30.14S
$$

IAZ055>058-069>071-079>083-090>094-270200-
   SOUTHWEST IOWA

CITY           SKY/WX    TMP DP  RH WIND       PRES   REMARKS
ATLANTIC *     CLEAR     73  66  78 NE5       30.11S
AUDUBON *      PTCLDY    73  70  88 CALM      30.14R
CLARINDA *     CLEAR     75  70  83 E3        30.12R
COUNCIL BLFS * CLEAR     73  70  88 NE6       30.10S
CRESTON *      CLEAR     72  70  94 E5        30.13R
HARLAN  *      MOCLDY    70  68  94 NE5       30.15S
LAMONI         CLEAR     74  67  78 NE5       30.11R
RED OAK *      CLEAR     73  68  83 NE5       30.11R
SHENANDOAH *   CLEAR     75  70  83 NE6       30.10S
$$

IAZ047>049-059>061-072>074-084-270200-
   CENTRAL IOWA

CITY           SKY/WX    TMP DP  RH WIND       PRES   REMARKS
AMES           CLOUDY    72  64  76 CALM      30.12S
ANKENY *       CLEAR     72  66  83 NE7       30.10F
CHARITON *     CLEAR     72  68  88 N5        30.11R
DES MOINES     PTCLDY    75  63  66 E7        30.10S
GRINNELL*      PTCLDY    70  64  83 N3        30.12S
KNOXVILLE *    CLEAR     75  64  69 NE5       30.10R
MARSHALLTOWN   MOCLDY    70  64  81 NE5       30.11F
PELLA *        PTCLDY    73  64  73 CALM      30.12R
PERRY *          N/A     70  68  94 CALM      30.13R
$$

IAZ004>006-015-016-023>025-035-036-270200-
   NORTH CENTRAL IOWA

CITY           SKY/WX    TMP DP  RH WIND       PRES   REMARKS
ALGONA *       CLEAR     66  59  77 CALM      30.14S
CLARION *      CLEAR     68  64  88 CALM      30.13F
ESTHERVILLE    MOCLDY    65  58  78 CALM      30.15R
FORT DODGE *   MOCLDY    68  61  77 NE5       30.13S
MASON CITY     MOCLDY    68  60  75 E5        30.14F
FOREST CITY *  CLEAR     68  61  77 CALM      30.13F
IOWA FALLS *     N/A     70  63  78 E5        30.13F
$$

IAZ007>011-017>019-026>030-037>042-050>054-066-270200-
   NORTHEAST IOWA

CITY           SKY/WX    TMP DP  RH WIND       PRES   REMARKS
CEDAR RAPIDS   PTCLDY    72  65  78 N5        30.10S
CHARLES CITY * CLOUDY    68  61  77 N3        30.15S
CLINTON *      PTCLDY    72  66  83 N7        30.12S
DECORAH *      CLEAR     68  59  73 CALM      30.13F
DUBUQUE        PTCLDY    69  64  84 N6        30.12S
MONTICELLO *   CLEAR     72  66  83 CALM      30.11S
OELWEIN *      CLOUDY    72  63  73 N6        30.13F
WATERLOO       MOCLDY    71  61  70 N5        30.11F
$$

IAZ064-065-067-068-078-270200-
   EAST CENTRAL IOWA

CITY           SKY/WX    TMP DP  RH WIND       PRES   REMARKS
DAVENPORT      PTCLDY    72  66  81 N6        30.09F
IOWA CITY      PTCLDY    76  66  71 N8        30.11R
MT. PLEASANT * PTCLDY    75  70  83 CALM      30.09S
MUSCATINE *    CLEAR     75  70  83 N5        30.09R
QUAD CITIES    PTCLDY    78  65  63 N5        30.08S HX  80
$$

IAZ062-063-075>077-085>089-095>099-270200-
   SOUTHEAST IOWA

CITY           SKY/WX    TMP DP  RH WIND       PRES   REMARKS
BURLINGTON     PTCLDY    75  70  84 N5        30.08R
FAIRFIELD *    CLEAR     73  70  88 N5        30.10S
FORT MADISON * CLEAR     75  72  88 CALM      30.10R
KEOKUK *       CLEAR     77  72  83 NE3       30.08R
OSKALOOSA *      N/A     72  68  88 N5        30.11R
CENTERVILLE *  CLEAR     73  72  94 CALM      30.12R
OTTUMWA        PTCLDY    75  67  76 N6        30.10R
WASHINGTON *   CLEAR     75  70  83 N5        30.10S
$$

ABBREVIATIONS USED IN REMARKS
   TC - TEMPERATURES IN CELSIUS
  WCI - WIND CHILL INDEX
   HX - HEAT INDEX
  VSB - VISIBILITY
$$



USA.gov is the U.S. government's official web portal to all federal, state and local government web resources and services.